Flag Weather past 2 weeks in Lage, North Rhine-Westphalia, Germany

Now
56 °F

Overcast.


Feels Like: 56 °F
Forecast: 52 / 63 °F
Wind: 1 mph from Southeast

Location: Bad Lippspringe

Current Time: Oct 30, 2014 at 4:01:11 PM

Latest Report: Oct 30, 2014 at 3:00 PM


Visibility: 5 mi

Pressure: 30.23 "Hg

Humidity: 87%

Dew point: 52 °F

Location of LageLocation

Historic Weather in Lage — Graph

°F

Lage temperature yesterday

Maximum temperature yesterday: 50 °F (at 3:00 PM)
Minimum temperature yesterday: 32 °F (at 6:00 AM)
Average temperature yesterday: 43 °F

Past Weeks' High & Low Weather Summary

 TemperatureHumidityPressure
High74 °F (Oct 19, 3:00 PM)100% (Oct 30, 12:00 AM)30.30 "Hg (Oct 30, 12:00 AM)
Low32 °F (Oct 29, 6:00 AM)56% (Oct 19, 3:00 PM)29.44 "Hg (Oct 21, 6:00 PM)
Average52 °F85%30.04 "Hg
* Reported Oct 15 4:00 PM — Oct 30 3:00 PM, Lage, Weather by CustomWeather, © 2014

Note: Actual official high and low records may vary slightly from our data, if they occured in-between our weather recording intervals... More about our weather records

Advertising

Lage weather history for previous 24 hours

 ConditionsComfort  
Time TempWeatherWind HumidityBarometerVisibility
3:00 PM
Oct 30
56 °FOvercast.1 mph87%30.23 "Hg5 mi
2:00 PM56 °FOvercast.1 mph84%30.24 "Hg6 mi
1:00 PM55 °FOvercast.1 mph87%30.24 "Hg5 mi
12:00 PM55 °FOvercast.2 mph89%30.23 "Hg5 mi
11:00 AM53 °FFog.1 mph91%30.24 "Hg4 mi
10:00 AM52 °FLow clouds.1 mph92%30.23 "Hg8 mi
9:00 AM50 °FOvercast.1 mph97%30.23 "Hg3 mi
8:00 AM49 °FLow clouds.1 mph99%30.22 "Hg1 mi
7:00 AM49 °FDrizzle. Low clouds.No wind99%30.21 "Hg1 mi
6:00 AM49 °FFog.1 mph99%30.19 "Hg1 mi
5:00 AM49 °FLow clouds.1 mph99%30.18 "Hg1 mi
4:00 AM49 °FLow clouds.1 mph99%30.18 "Hg1 mi
3:00 AM49 °FDrizzle. Dense fog.1 mph99%30.18 "Hg0 mi
2:00 AM49 °FDrizzle. Low clouds.1 mph99%30.17 "Hg0 mi
1:00 AM49 °FLow clouds.1 mph100%30.16 "Hg0 mi
12:00 AM49 °FLow clouds.1 mph100%30.15 "Hg0 mi
11:00 PM
Oct 29
49 °FLow clouds.1 mph99%30.14 "Hg0 mi
10:00 PM48 °FLow clouds.1 mph99%30.14 "Hg1 mi
9:00 PM48 °FDrizzle. Low clouds.1 mph98%30.14 "Hg1 mi
8:00 PM48 °FLow clouds.1 mph97%30.11 "Hg1 mi
7:00 PM48 °FLight freezing rain. Low clouds.1 mph97%30.10 "Hg1 mi
6:00 PM48 °FRain. Overcast.1 mph97%30.09 "Hg1 mi
5:00 PM48 °FLight rain. Overcast.1 mph95%30.08 "Hg2 mi
4:00 PM49 °FLight freezing rain. Overcast.1 mph92%30.07 "Hg1 mi
Weather by CustomWeather, © 2014

See weather overviewHow to use our weather pages